Vertical_Velocity
-4 0 2 -2 -2 -3 -2 -0 1 2 -1 4 1 2 -0 -2 -1 2 1 -6 -3 4 -0 -3 -7 0 -2 -1 -2 -1 -5 -7 -5 -4 -3 -2 -2 -2 -2 -3 -0 1 -2 -1
-2 1 1 -5 0 -1 -2 -2 0 -2 -3 -3 -3 -1 -0 -0 -1 -2 -1 -1 2 0 -2 -3 -0 -1 1 -0 -2 -3 -1 -1 -1 -1 0 2 1 -0 -0 -3 -5 -0 1 -1
9 -3 -3 -2 -2 -0 -1 2 -1 -3 -4 -2 -0 -2 -5 -3 -2 -2 -2 -1 -1 -0 1 1 1 -1 -2 -5 -5 -3 -3 -2 0 -1 -1 -2 -4 -4 -6 -5 -1 -2 1 0
1 3 -1 2 -1 -2 -1 -5 -4 -2 -2 12 -6 15 -3 -2 -0 -2 -2 -3 -3 -1 -1 -0 -0 -1 -3 -2 -1 -1 -3 -1 -1 -1 -2 -1 -1 -0 0 -2 -1 1 -1 -2
-2 4 4 1 0 1 -5 -1 -3 -4 -2 -3 -3 1 -0 0 -2 1 2 1 1 -1 -1 -3 -4 -2 -2 -3 -2 -2 -2 -0 1 0 -2 -0 -1 1 -2 -4 -4 -4 -1 -1
-0 -1 1 -1 0 -1 0 -0 -1 0 -1 5 -4 -0 10 -3 -2 -1 -1 0 -2 -3 -3 -1 -1 -2 -2 -2 -3 -3 -2 -2 -3 -3 -1 -1 -2 -2 -3 -0 -2 -3 -2 -2
2 -1 2 1 5 0 -2 4 3 6 5 2 -5 -1 10 -2 -2 -1 -0 1 1 1 -1 -2 -2 -3 -2 -2 -3 -3 -2 -0 -2 -3 -0 1 2 -0 -1 -2 -2 0 -2 -2
-2 1 -5 -1 -8 7 3 2 5 -1 0 4 0 -2 -2 -4 -2 -3 1 1 -0 -1 -2 -1 -2 -2 -2 -2 -1 0 -1 -2 -3 -2 -2 -3 -1 -0 -1 -1 1 -0 -0 0
-2 -1 1 -0 2 -6 -3 -1 -5 -1 -3 0 0 -3 -2 -0 -3 -3 0 3 0 -1 -0 -1 -1 -2 -2 -2 -1 -1 -1 -1 1 -0 -3 -0 -0 -2 -3 -0 -2 -3 -1 0
-1 -3 -0 -0 2 1 -4 -4 0 -1 -1 -0 -0 -2 9 -1 -2 -3 -3 -1 2 3 1 1 -0 -1 -1 1 -1 -1 -1 -1 1 1 2 -1 -3 -4 -2 -2 -0 0 -2 -3
1 2 -2 2 -1 1 -1 -3 -3 1 -2 1 1 6 -5 -1 -1 -1 -2 -1 0 2 2 2 2 -0 -0 -0 -0 -2 -0 -0 -1 -1 -2 -1 -0 -1 -2 -3 -3 -0 -1 1
-2 0 -1 -3 1 1 -5 -1 -1 2 -2 -2 -0 -2 -4 -2 -1 -2 -2 -1 -0 -0 0 0 -1 1 -1 1 -1 -2 -3 -2 -2 -3 -0 -0 -2 -1 2 1 3 0 -1 -1
0 1 -1 1 -1 -1 -4 -3 3 1 2 -4 1 4 -3 -2 -1 -2 -1 -0 1 -0 -0 1 2 1 0 1 1 -2 -1 -1 -1 -1 -2 -5 -5 -3 -2 0 0 -2 -2 -1
8 0 -3 -6 -2 1 -5 0 1 2 1 -4 -11 11 -3 1 1 0 -1 1 0 -1 0 0 0 1 0 0 2 1 -1 -1 -1 -2 -1 0 2 0 -2 -4 -2 -1 1 0
7 -3 3 -2 -1 -3 -0 -0 0 -8 3 -5 5 -2 4 -2 -3 -3 -3 -2 1 2 2 0 1 1 1 1 0 -1 -2 -2 -1 -1 -1 -3 -2 -2 0 0 -1 -2 -2 -2
3 -5 3 1 -2 3 -3 -1 1 2 -4 -7 2 4 -3 1 -0 -1 -2 -2 -0 0 1 1 -0 1 0 -1 1 0 -1 -2 -2 -2 -2 -2 -3 -3 -4 -3 -1 -2 -2 -2
2 -1 2 1 1 1 -8 -3 -1 3 2 5 -4 7 -4 1 2 2 2 -1 0 1 1 -0 -2 -2 0 1 1 -1 -2 -2 -1 -2 -3 -5 -5 -4 -3 -3 -4 -4 -2 -2
0 2 4 0 1 0 -7 -1 2 -1 0 0 -0 -0 3 1 2 3 1 -1 1 0 -1 0 0 1 -1 -2 -2 -2 -3 -4 -2 -2 -1 -3 -4 -6 -5 -4 -5 -4 -5 -4
0 -0 -1 1 -1 -3 -3 -4 1 1 -3 3 2 -1 -1 -1 1 2 -1 -2 -1 3 0 -1 -2 -2 -1 0 0 -0 -1 -3 -4 -4 -2 -2 -3 -3 -4 -2 -2 -2 -4 -4
4 -1 2 1 -1 -1 -3 -2 0 0 -3 -1 1 2 0 1 3 -4 2 -3 -1 -1 1 1 -1 -2 -1 -1 -1 -1 -1 -0 -1 -1 -2 -4 -3 -3 -4 -5 -5 -4 -5 -7
0 1 -4 2 -1 -3 -5 -0 -0 2 -3 -0 -1 -2 -2 -1 -3 0 1 -1 1 2 -1 -0 -1 -2 -3 -2 -2 -1 -3 -3 -3 -2 -4 -4 -5 -5 -5 -5 -5 -4 -0 -0
1 -1 -2 3 -1 -7 -1 -0 -0 -3 -1 -0 0 1 0 2 -3 2 2 -1 0 2 0 -3 -3 -2 0 -0 -1 1 1 -1 -2 -2 -3 -4 -3 -2 -2 -4 -2 -3 -4 -6
-5 -4 -1 0 -1 -0 -0 0 -1 -1 0 1 2 1 2 0 -2 1 -2 -0 1 2 -0 -2 -2 -2 -3 -6 -5 -4 -3 -4 -5 -3 -2 -3 -2 -3 -2 -5 -5 -10 -6 -4
-2 1 -3 5 -2 -1 0 -2 -1 3 1 2 -1 0 -1 -2 -1 4 -1 -1 -0 1 -0 -2 -2 -2 -1 -1 -1 -2 -3 -1 0 -2 -1 -2 -4 -4 -5 -4 -2 -5 -1 -2
-1 2 0 -5 4 -0 -1 -4 0 3 2 -0 1 1 2 0 1 3 0 -0 1 1 -1 -3 -2 -1 0 -1 -2 -2 -3 -2 -2 -1 -0 -1 -3 -5 -8 -7 -11 -3 8 9
-2 -0 1 0 -2 -5 -0 1 1 -2 -1 2 2 2 1 2 4 3 -0 -0 1 0 -0 -1 -2 -2 -2 -1 -1 -0 -3 -3 -3 -3 -3 -4 -6 -5 -5 -3 -18 10 10 1
Height
3208 3210 3213 3213 3215 3218 3221 3224 3226 3225 3226 3231 3230 3230 3229 3230 3231 3232 3232 3233 3233 3231 3230 3229 3227 3225 3222 3220 3218 3216 3214 3213 3211 3209 3207 3205 3202 3200 3196 3194 3192 3189 3188 3185
3210 3210 3212 3213 3215 3217 3220 3223 3224 3226 3227 3230 3230 3232 3231 3231 3231 3231 3231 3231 3231 3230 3229 3227 3226 3224 3222 3220 3217 3215 3213 3211 3210 3208 3206 3204 3202 3199 3197 3194 3191 3188 3186 3184
3209 3209 3212 3214 3216 3218 3220 3224 3224 3226 3227 3229 3231 3232 3229 3229 3229 3229 3230 3230 3229 3229 3229 3227 3226 3223 3221 3219 3217 3214 3212 3210 3208 3206 3203 3201 3201 3199 3196 3193 3191 3188 3185 3182
3210 3210 3211 3214 3217 3220 3220 3221 3223 3225 3228 3230 3230 3226 3225 3225 3225 3226 3227 3227 3227 3228 3227 3226 3224 3222 3220 3218 3215 3213 3211 3209 3207 3204 3202 3201 3200 3197 3195 3193 3190 3187 3185 3182
3209 3210 3212 3215 3216 3218 3220 3221 3222 3225 3228 3228 3227 3228 3222 3222 3222 3222 3223 3224 3224 3224 3224 3223 3221 3220 3218 3216 3213 3211 3209 3206 3204 3202 3199 3198 3197 3195 3192 3190 3187 3185 3182 3180
3207 3210 3211 3213 3215 3217 3219 3221 3222 3223 3225 3225 3224 3225 3220 3219 3219 3220 3220 3220 3220 3220 3220 3219 3218 3217 3216 3213 3211 3209 3206 3204 3201 3199 3197 3195 3194 3192 3189 3187 3184 3182 3179 3176
3208 3210 3211 3213 3215 3216 3219 3221 3222 3223 3222 3218 3220 3221 3217 3215 3215 3217 3216 3216 3216 3216 3216 3216 3215 3215 3213 3211 3209 3207 3205 3202 3200 3198 3195 3193 3191 3188 3186 3183 3181 3179 3176 3174
3207 3211 3211 3211 3213 3217 3218 3221 3220 3215 3212 3214 3216 3214 3213 3212 3213 3213 3213 3213 3213 3213 3213 3212 3212 3211 3210 3209 3207 3206 3204 3201 3199 3196 3194 3192 3189 3186 3184 3181 3178 3174 3172 3169
3203 3204 3205 3208 3209 3214 3215 3217 3217 3217 3216 3215 3210 3209 3208 3208 3209 3210 3210 3209 3209 3208 3209 3209 3209 3208 3207 3206 3205 3203 3201 3199 3196 3193 3191 3189 3186 3183 3180 3176 3173 3170 3166 3163
3200 3202 3202 3205 3208 3209 3211 3213 3216 3215 3217 3215 3206 3207 3205 3204 3205 3206 3206 3206 3206 3206 3205 3206 3205 3204 3204 3203 3201 3200 3198 3195 3193 3190 3187 3184 3181 3178 3174 3171 3168 3164 3160 3156
3196 3199 3202 3204 3203 3204 3207 3208 3212 3212 3212 3210 3204 3201 3201 3201 3202 3202 3203 3203 3203 3204 3203 3202 3201 3200 3200 3199 3197 3195 3194 3191 3188 3185 3182 3179 3176 3172 3168 3165 3161 3157 3152 3149
3192 3194 3197 3199 3199 3200 3200 3203 3205 3209 3208 3206 3206 3203 3198 3198 3198 3199 3199 3199 3199 3199 3199 3198 3197 3196 3195 3194 3192 3190 3187 3185 3182 3180 3176 3173 3169 3165 3161 3156 3152 3147 3143 3140
3187 3189 3193 3195 3199 3196 3194 3196 3198 3201 3202 3201 3203 3196 3193 3194 3194 3195 3195 3195 3195 3195 3194 3194 3193 3192 3191 3189 3186 3183 3181 3178 3176 3173 3169 3165 3160 3156 3151 3146 3141 3137 3133 3129
3183 3184 3185 3187 3187 3188 3188 3188 3191 3195 3196 3194 3191 3191 3189 3190 3190 3190 3190 3191 3190 3190 3190 3189 3188 3187 3185 3183 3180 3176 3173 3171 3168 3165 3160 3155 3151 3146 3141 3136 3132 3127 3123 3118
3180 3179 3181 3181 3183 3185 3186 3186 3185 3185 3188 3189 3188 3186 3186 3184 3184 3184 3185 3185 3185 3185 3184 3184 3183 3181 3178 3175 3172 3170 3167 3163 3160 3156 3151 3145 3140 3135 3130 3124 3120 3116 3111 3107
3175 3177 3178 3177 3179 3180 3181 3180 3180 3180 3181 3181 3182 3180 3177 3177 3177 3177 3177 3178 3179 3178 3178 3177 3176 3174 3172 3169 3166 3163 3159 3155 3150 3145 3139 3134 3128 3124 3118 3113 3108 3104 3099 3094
3172 3175 3176 3174 3173 3176 3176 3172 3172 3172 3172 3174 3175 3177 3173 3174 3173 3172 3171 3172 3172 3172 3172 3170 3169 3167 3165 3163 3159 3155 3150 3145 3140 3134 3129 3123 3117 3112 3106 3101 3095 3090 3085 3079
3168 3171 3174 3172 3171 3174 3166 3167 3166 3167 3167 3167 3167 3168 3169 3168 3168 3167 3166 3166 3166 3165 3165 3163 3162 3161 3159 3155 3150 3145 3139 3133 3128 3122 3117 3111 3105 3099 3093 3087 3080 3075 3069 3062
3165 3167 3170 3170 3168 3165 3163 3163 3163 3162 3163 3162 3162 3162 3162 3163 3164 3161 3161 3161 3161 3160 3159 3158 3156 3153 3150 3145 3140 3134 3128 3122 3116 3111 3105 3099 3093 3086 3079 3072 3064 3056 3049 3042
3161 3163 3167 3165 3164 3162 3158 3158 3159 3159 3159 3157 3157 3157 3158 3160 3160 3160 3157 3156 3156 3155 3153 3151 3148 3145 3141 3135 3130 3124 3119 3113 3107 3101 3093 3086 3078 3070 3063 3055 3048 3042 3035 3027
3155 3158 3160 3160 3159 3156 3154 3155 3156 3159 3159 3153 3153 3154 3155 3155 3156 3155 3153 3152 3151 3149 3147 3144 3141 3137 3131 3126 3120 3115 3109 3102 3095 3088 3081 3073 3065 3057 3049 3042 3035 3028 3021 3015
3151 3154 3154 3155 3156 3153 3149 3151 3154 3153 3151 3151 3151 3151 3151 3150 3150 3150 3149 3148 3146 3143 3140 3136 3133 3129 3124 3118 3112 3105 3098 3091 3083 3075 3067 3060 3053 3047 3040 3033 3026 3020 3012 3005
3147 3148 3149 3151 3147 3146 3146 3147 3148 3149 3148 3148 3147 3147 3147 3145 3145 3145 3143 3142 3140 3137 3132 3128 3124 3119 3114 3106 3100 3094 3087 3080 3072 3064 3057 3050 3044 3037 3031 3023 3016 3009 3003 2994
3140 3143 3143 3144 3142 3142 3143 3145 3145 3145 3144 3144 3143 3143 3142 3142 3141 3140 3137 3136 3133 3129 3124 3119 3115 3110 3103 3097 3091 3083 3076 3069 3061 3053 3047 3040 3033 3026 3020 3014 3007 2999 2992 2983
3137 3138 3138 3138 3138 3139 3140 3140 3141 3140 3140 3139 3139 3139 3138 3138 3136 3134 3131 3129 3125 3120 3115 3111 3106 3100 3093 3087 3080 3073 3064 3057 3051 3044 3038 3030 3024 3017 3010 3003 2996 2989 2983 2975
3133 3133 3135 3134 3133 3135 3136 3136 3136 3136 3136 3135 3135 3135 3134 3133 3131 3128 3125 3121 3117 3113 3108 3103 3098 3091 3084 3077 3070 3062 3054 3048 3042 3034 3028 3022 3015 3009 3001 2993 2985 2982 2974 2968